Showing default

GAOFEN 1-03, 43260

Orbit data source: Space-Track

GAOFEN 1-03, 43260 is a payload satellite owned by GGKGJ (CN) in SSO that was launched on Sat, 31 Mar 2018 UTC via a CHANG ZHENG 4C launch vehicle from the Taiyaun Space Center, China (TSC). Payload-class satellites include a variety of spacecraft equipped with specific instruments for various scientific and technological missions. These include communications satellites like Starlink; space stations such as the ISS; scientific satellites like the Hubble; Earth observation satellites from companies like Planet Labs, Umbra, and HawkEye 360; GPS; miniature CubeSats for education and research; and military/defense satellites.

Loading next visibility...
Identifier
43260, 2018-031B
Orbit
SSO
Country
Flag of CNCN / PRC
Related business
Manufacturer
DFH
Mission
Operational Civil Imaging
Bus & Motor
CAST-2000, AOCS
Mass
805 kg wet, ~700 kg dry
Launch date (UTC)
2018-03-31 (8 years ago)
Launch vehicle
CHANG ZHENG 4C
Launch site
Taiyaun Space Center, China (TSC)
Object type
Payload
Rocket body
Debris
Shape & HBR
Box + 2 Pan, 2.0 m
Radar Cross Section
4.991 m², Large (>1 m²)

Expand to show TLE details & history
Last TLE update: 9 hours ago

TLE from 9 hours ago
0 GAOFEN 1-03
1 43260U 18031B   26036.53000418  .00001389  00000-0  20710-3 0  9990
2 43260  98.0705  99.1864 0004050 123.6766 236.4830 14.76439945423268
Epoch: 2026-02-05T12:43Z
TLE epoch observation values (Epoch: 2026-02-05T12:43:12.361Z)
Latitude
-0.00002°
Longitude
132.70398°
Altitude
645.166 km
Speed
7.534 km/s
True Right ascension
06h 36m 44s
True Declination
0° 00' 00"
Sunlit
Object was in full shadow at epoch
Visualization orbit readout
Latitude
Unknown
Longitude
Unknown
Altitude
Unknown
Speed
Unknown
Apparent Right ascension
Unknown
Apparent Declination
Unknown
Sunlit
N/A
Visualization observer readout
Local Sidereal Time
23:20:18
Azimuth
Unknown
Elevation
Unknown
Doppler factor
Unknown
Orbital elements
Apogee altitude
640.479 km
Perigee altitude
634.796 km
Semi-major axis
7,015.774 km
Eccentricity
0.00041
Inclination
98.0705°
RAAN
99.1864°
Arg. of periapsis
123.6766°
True anomaly
236.44432°
Mean anomaly
236.483°
Eccentric anomaly
236.46366°
Mean motion
3.69343 °/min
Orbital period
97.47 mins
BSTAR
0.0002071
Loading maneuver chart data...
Computing Atmospheric mass density...
Loading historical data...
Loading historical data...
Loading historical data...
Loading historical data...
Loading historical data...
Loading historical data...
Loading historical data...

Documentation

Showing up to 5 results
|